TimeCDT,TemperatureF,Dew PointF,Humidity,Sea Level PressureIn,VisibilityMPH,Wind Direction,Wind SpeedMPH,Gust SpeedMPH,PrecipitationIn,Events,Conditions,WindDirDegrees,DateUTC
12:15 AM,38.3,24.6,58,30.01,10.0,WNW,3.5,-,N/A,,Clear,290,2013-03-21 05:15:00
12:35 AM,37.9,24.1,57,30.00,10.0,NW,4.6,-,N/A,,Clear,310,2013-03-21 05:35:00
1:15 AM,37.2,24.6,60,30.00,10.0,NNW,4.6,-,N/A,,Clear,340,2013-03-21 06:15:00
1:35 AM,36.1,25.7,66,30.00,10.0,NNW,3.5,-,N/A,,Clear,340,2013-03-21 06:35:00
1:55 AM,35.2,26.8,71,30.01,10.0,North,5.8,-,N/A,,Clear,350,2013-03-21 06:55:00
2:15 AM,34.3,27.7,77,30.01,10.0,North,4.6,-,N/A,,Clear,10,2013-03-21 07:15:00
2:35 AM,33.4,27.5,79,30.01,10.0,North,3.5,-,N/A,,Clear,360,2013-03-21 07:35:00
2:55 AM,32.5,26.6,79,30.02,10.0,North,8.1,-,N/A,,Clear,350,2013-03-21 07:55:00
3:15 AM,32.2,25.0,75,30.01,10.0,North,9.2,-,N/A,,Clear,360,2013-03-21 08:15:00
3:35 AM,31.8,23.4,71,30.01,10.0,North,6.9,-,N/A,,Clear,360,2013-03-21 08:35:00
3:55 AM,30.7,23.0,73,30.01,10.0,North,6.9,-,N/A,,Clear,10,2013-03-21 08:55:00
4:15 AM,30.0,22.8,75,30.02,10.0,North,4.6,-,N/A,,Clear,10,2013-03-21 09:15:00
4:35 AM,29.3,21.9,74,30.02,10.0,North,4.6,-,N/A,,Clear,360,2013-03-21 09:35:00
4:55 AM,28.8,20.3,71,30.02,10.0,North,4.6,-,N/A,,Clear,360,2013-03-21 09:55:00
5:15 AM,28.0,19.4,70,30.03,10.0,North,5.8,-,N/A,,Clear,10,2013-03-21 10:15:00
5:35 AM,27.7,18.1,67,30.03,10.0,North,5.8,-,N/A,,Clear,360,2013-03-21 10:35:00
5:55 AM,27.3,16.9,65,30.03,10.0,North,5.8,-,N/A,,Clear,10,2013-03-21 10:55:00
6:15 AM,26.8,16.2,64,30.04,10.0,North,5.8,-,N/A,,Clear,10,2013-03-21 11:15:00
6:35 AM,26.4,15.8,64,30.05,10.0,Calm,Calm,-,N/A,,Clear,0,2013-03-21 11:35:00
6:55 AM,26.1,15.8,65,30.06,10.0,Calm,Calm,-,N/A,,Clear,0,2013-03-21 11:55:00
7:15 AM,25.7,14.9,64,30.06,10.0,North,3.5,-,N/A,,Clear,350,2013-03-21 12:15:00
7:35 AM,26.6,13.8,59,30.07,10.0,North,4.6,-,N/A,,Clear,350,2013-03-21 12:35:00
7:55 AM,27.7,13.8,56,30.08,10.0,NNW,4.6,-,N/A,,Clear,340,2013-03-21 12:55:00
8:15 AM,28.2,14.4,56,30.08,10.0,North,4.6,-,N/A,,Clear,360,2013-03-21 13:15:00
8:35 AM,29.1,14.0,53,30.08,10.0,North,8.1,-,N/A,,Clear,350,2013-03-21 13:35:00
8:55 AM,29.8,12.7,49,30.09,10.0,NNW,10.4,-,N/A,,Clear,340,2013-03-21 13:55:00
9:15 AM,30.4,11.8,46,30.10,10.0,NW,9.2,-,N/A,,Clear,320,2013-03-21 14:15:00
9:35 AM,31.6,12.2,45,30.10,10.0,North,8.1,-,N/A,,Clear,10,2013-03-21 14:35:00
9:55 AM,32.2,11.3,42,30.09,10.0,NNW,10.4,-,N/A,,Clear,330,2013-03-21 14:55:00
10:15 AM,32.9,11.1,40,30.09,10.0,North,8.1,-,N/A,,Clear,350,2013-03-21 15:15:00
10:35 AM,33.1,10.8,40,30.08,10.0,NNW,8.1,-,N/A,,Clear,330,2013-03-21 15:35:00
10:55 AM,34.2,11.3,39,30.08,10.0,North,5.8,-,N/A,,Clear,10,2013-03-21 15:55:00
11:35 AM,36.7,12.2,37,30.06,10.0,NNW,8.1,-,N/A,,Clear,330,2013-03-21 16:35:00
11:55 AM,37.9,10.8,33,30.06,10.0,NW,8.1,-,N/A,,Clear,310,2013-03-21 16:55:00
12:15 PM,38.3,9.7,31,30.06,10.0,North,6.9,-,N/A,,Clear,10,2013-03-21 17:15:00
12:35 PM,39.0,10.4,31,30.06,10.0,NNW,6.9,16.1,N/A,,Clear,340,2013-03-21 17:35:00
12:55 PM,40.3,10.4,29,30.05,10.0,North,10.4,16.1,N/A,,Clear,360,2013-03-21 17:55:00
1:15 PM,40.3,10.8,30,30.05,10.0,NNW,10.4,16.1,N/A,,Clear,330,2013-03-21 18:15:00
1:35 PM,41.0,11.3,30,30.04,10.0,NW,9.2,-,N/A,,Clear,320,2013-03-21 18:35:00
1:55 PM,42.4,11.8,29,30.02,10.0,NNW,6.9,-,N/A,,Clear,340,2013-03-21 18:55:00
2:15 PM,42.6,11.8,29,30.01,10.0,North,9.2,-,N/A,,Clear,360,2013-03-21 19:15:00
2:35 PM,42.4,11.8,29,30.00,10.0,NW,8.1,-,N/A,,Clear,310,2013-03-21 19:35:00
2:55 PM,44.1,12.4,28,29.99,10.0,NNW,5.8,-,N/A,,Clear,340,2013-03-21 19:55:00
3:15 PM,44.1,12.7,28,29.99,10.0,Calm,Calm,-,N/A,,Clear,0,2013-03-21 20:15:00
3:35 PM,44.8,12.0,27,29.98,10.0,WNW,5.8,-,N/A,,Clear,300,2013-03-21 20:35:00
3:55 PM,45.0,12.4,27,29.98,10.0,North,4.6,-,N/A,,Clear,350,2013-03-21 20:55:00
4:15 PM,45.1,12.9,27,29.98,10.0,NNW,5.8,-,N/A,,Clear,330,2013-03-21 21:15:00
4:35 PM,44.8,12.6,27,29.96,10.0,NNE,3.5,-,N/A,,Clear,20,2013-03-21 21:35:00
4:55 PM,45.5,13.8,28,29.96,10.0,NW,4.6,-,N/A,,Clear,310,2013-03-21 21:55:00
5:15 PM,43.9,13.5,29,29.96,10.0,NNE,3.5,-,N/A,,Clear,20,2013-03-21 22:15:00
5:35 PM,43.3,14.0,31,29.96,10.0,NNW,3.5,-,N/A,,Clear,330,2013-03-21 22:35:00
5:55 PM,42.8,14.4,32,29.96,10.0,NNW,3.5,-,N/A,,Clear,340,2013-03-21 22:55:00
6:15 PM,42.6,14.9,33,29.97,10.0,Calm,Calm,-,N/A,,Clear,0,2013-03-21 23:15:00
6:35 PM,42.1,14.4,33,29.97,10.0,Calm,Calm,-,N/A,,Clear,0,2013-03-21 23:35:00
6:55 PM,41.5,16.5,36,29.97,10.0,North,4.6,-,N/A,,Clear,10,2013-03-21 23:55:00
7:15 PM,40.8,18.1,40,29.97,10.0,Calm,Calm,-,N/A,,Clear,0,2013-03-22 00:15:00
7:35 PM,40.5,17.8,40,29.97,10.0,Calm,Calm,-,N/A,,Clear,0,2013-03-22 00:35:00
7:55 PM,40.5,19.0,42,29.98,10.0,Calm,Calm,-,N/A,,Scattered Clouds,0,2013-03-22 00:55:00
8:15 PM,39.9,20.7,46,29.97,10.0,NNE,3.5,-,N/A,,Scattered Clouds,20,2013-03-22 01:15:00
8:35 PM,39.7,21.4,48,29.98,10.0,Calm,Calm,-,N/A,,Scattered Clouds,0,2013-03-22 01:35:00
8:55 PM,39.9,21.2,47,29.98,10.0,Calm,Calm,-,N/A,,Clear,0,2013-03-22 01:55:00
9:15 PM,39.4,21.7,49,29.98,10.0,Calm,Calm,-,N/A,,Clear,0,2013-03-22 02:15:00
9:35 PM,39.0,23.7,54,29.98,10.0,Calm,Calm,-,N/A,,Clear,0,2013-03-22 02:35:00
9:55 PM,38.8,26.2,61,29.99,10.0,Calm,Calm,-,N/A,,Clear,0,2013-03-22 02:55:00
10:15 PM,38.8,26.4,61,29.99,10.0,Calm,Calm,-,N/A,,Clear,0,2013-03-22 03:15:00
10:35 PM,39.0,24.6,56,29.99,10.0,Calm,Calm,-,N/A,,Clear,0,2013-03-22 03:35:00
10:55 PM,39.4,25.9,58,30.01,10.0,Calm,Calm,-,N/A,,Clear,0,2013-03-22 03:55:00
11:15 PM,39.4,26.1,59,30.01,10.0,Calm,Calm,-,N/A,,Mostly Cloudy,0,2013-03-22 04:15:00
11:35 PM,39.6,24.4,55,30.01,7.0,North,3.5,-,N/A,Rain,Light Rain,10,2013-03-22 04:35:00
11:55 PM,39.6,23.5,53,30.03,10.0,Calm,Calm,-,N/A,,Scattered Clouds,0,2013-03-22 04:55:00